KLC334 GQNO-GUCY

Flight info

Callsign KLC334
Flight time N/A
Altitude 35000
Route NO502 DCT BINAD DCT NEVDI DCT KITNI UR865 POGRA POGRA1B
Aircraft E190/M-SDE3GILORVW/S

Departure

Time 2026-04-30 14:22
Airport Nouakchott–Oumtounsy International Airport (GQNO)

Arrival

Time N/A
Airport Ahmed Sékou Touré International Airport (GUCY)
Time Latitude Longitude Altitude Speed Heading
2026-04-30 13:59 18.31102 -15.96736 7 ft 0 kts 56°
2026-04-30 14:09 18.31107 -15.96750 6 ft 0 kts 232°
2026-04-30 14:11 18.31104 -15.96753 6 ft 1 kts 232°
2026-04-30 14:11 18.31094 -15.96767 7 ft 4 kts 232°
2026-04-30 14:11 18.31083 -15.96785 6 ft 0 kts 237°
2026-04-30 14:11 18.31074 -15.96798 6 ft 5 kts 237°
2026-04-30 14:12 18.31045 -15.96851 7 ft 11 kts 242°
2026-04-30 14:12 18.31008 -15.96927 8 ft 12 kts 243°
2026-04-30 14:12 18.30976 -15.96990 9 ft 7 kts 241°
2026-04-30 14:12 18.30948 -15.97044 8 ft 10 kts 240°
2026-04-30 14:13 18.30907 -15.97115 7 ft 13 kts 238°
2026-04-30 14:13 18.30856 -15.97202 7 ft 15 kts 239°
2026-04-30 14:13 18.30804 -15.97299 6 ft 16 kts 246°
2026-04-30 14:13 18.30780 -15.97394 6 ft 11 kts 272°
2026-04-30 14:14 18.30811 -15.97453 6 ft 9 kts 311°
2026-04-30 14:14 18.30861 -15.97502 6 ft 10 kts 319°
2026-04-30 14:14 18.30865 -15.97532 6 ft 2 kts 252°
2026-04-30 14:14 18.30861 -15.97537 8 ft 2 kts 238°
2026-04-30 14:15 18.30852 -15.97547 7 ft 0 kts 227°
2026-04-30 14:21 18.30830 -15.97575 0 ft 23 kts 230°
2026-04-30 14:21 18.29974 -15.98631 21 ft 158 kts 233°
2026-04-30 14:22 18.29126 -15.99585 466 ft 198 kts 231°
2026-04-30 14:22 18.26971 -16.02284 1712 ft 268 kts 232°
2026-04-30 14:22 18.25744 -16.03810 2872 ft 273 kts 232°
2026-04-30 14:23 18.23215 -16.06864 5525 ft 283 kts 223°
2026-04-30 14:23 18.19491 -16.08181 8091 ft 285 kts 192°
2026-04-30 14:24 18.15641 -16.08971 10493 ft 288 kts 192°
2026-04-30 14:24 18.13614 -16.09370 11153 ft 303 kts 192°
2026-04-30 14:25 18.09321 -16.10186 12763 ft 324 kts 191°
2026-04-30 14:25 18.04670 -16.10509 14269 ft 346 kts 180°
2026-04-30 14:26 17.99752 -16.10493 15861 ft 364 kts 181°
2026-04-30 14:26 17.97199 -16.10496 16769 ft 366 kts 181°
2026-04-30 14:26 17.91977 -16.10511 18249 ft 382 kts 181°
2026-04-30 14:27 17.89292 -16.10521 18887 ft 387 kts 181°
2026-04-30 14:27 17.86577 -16.10532 19522 ft 392 kts 181°
2026-04-30 14:27 17.83825 -16.10542 20132 ft 398 kts 182°
2026-04-30 14:28 17.78221 -16.10566 21323 ft 407 kts 181°
2026-04-30 14:28 17.75367 -16.10579 21905 ft 412 kts 182°
2026-04-30 14:28 17.72523 -16.10591 22464 ft 417 kts 182°
2026-04-30 14:28 17.69608 -16.10604 23041 ft 421 kts 182°
2026-04-30 14:29 17.63678 -16.10629 24028 ft 429 kts 182°
2026-04-30 14:29 17.58688 -16.10651 24757 ft 434 kts 182°
2026-04-30 14:30 17.48475 -16.10695 26094 ft 444 kts 183°
2026-04-30 14:31 17.42287 -16.10722 26871 ft 450 kts 184°
2026-04-30 14:31 17.35980 -16.10748 27613 ft 456 kts 184°
2026-04-30 14:31 17.32795 -16.10763 27976 ft 459 kts 184°
2026-04-30 14:32 17.26360 -16.10790 28653 ft 464 kts 184°
2026-04-30 14:32 17.23119 -16.10803 28978 ft 467 kts 184°
2026-04-30 14:32 17.19869 -16.10816 29405 ft 466 kts 185°
2026-04-30 14:33 17.16629 -16.10829 29840 ft 465 kts 185°
2026-04-30 14:33 17.10168 -16.10855 30611 ft 463 kts 185°
2026-04-30 14:33 17.06953 -16.10868 30934 ft 462 kts 185°
2026-04-30 14:34 17.03780 -16.10881 31312 ft 461 kts 185°
2026-04-30 14:34 17.00582 -16.10895 31696 ft 459 kts 185°
2026-04-30 14:34 16.97390 -16.10908 32110 ft 457 kts 185°
2026-04-30 14:34 16.94213 -16.10920 32537 ft 455 kts 185°
2026-04-30 14:35 16.88963 -16.10943 33233 ft 452 kts 185°
2026-04-30 14:35 16.84762 -16.10960 33763 ft 449 kts 185°
2026-04-30 14:35 16.81638 -16.10972 34123 ft 448 kts 185°
2026-04-30 14:36 16.78564 -16.10986 34439 ft 446 kts 185°
2026-04-30 14:36 16.75461 -16.10999 34751 ft 445 kts 185°
2026-04-30 14:36 16.72365 -16.11012 35082 ft 443 kts 185°
2026-04-30 14:37 16.66093 -16.11039 35046 ft 455 kts 185°
2026-04-30 14:37 16.59762 -16.11063 35060 ft 459 kts 185°
2026-04-30 14:38 16.53343 -16.10985 35057 ft 465 kts 177°
2026-04-30 14:38 16.50189 -16.10133 35051 ft 475 kts 159°
2026-04-30 14:38 16.47275 -16.08463 35047 ft 481 kts 152°
2026-04-30 14:38 16.44422 -16.06637 34941 ft 480 kts 152°
2026-04-30 14:39 16.41564 -16.04823 34945 ft 480 kts 152°
2026-04-30 14:39 16.35863 -16.01220 34944 ft 479 kts 152°
2026-04-30 14:40 16.27345 -15.95856 34945 ft 479 kts 152°
2026-04-30 14:40 16.21639 -15.92270 34937 ft 479 kts 152°
2026-04-30 14:41 16.15914 -15.88676 34937 ft 479 kts 152°
2026-04-30 14:41 16.10198 -15.85090 34936 ft 479 kts 152°
2026-04-30 14:42 16.04507 -15.81524 34931 ft 477 kts 152°
2026-04-30 14:42 15.98856 -15.77985 34926 ft 477 kts 152°
2026-04-30 14:43 15.93164 -15.74422 34929 ft 477 kts 152°
2026-04-30 14:43 15.87473 -15.70862 34923 ft 477 kts 152°
2026-04-30 14:44 15.81781 -15.67305 34929 ft 477 kts 152°
2026-04-30 14:44 15.76124 -15.63771 34917 ft 476 kts 152°
2026-04-30 14:45 15.70459 -15.60235 34914 ft 475 kts 152°
2026-04-30 14:45 15.64799 -15.56705 34927 ft 475 kts 152°
2026-04-30 14:46 15.59129 -15.53170 34929 ft 475 kts 152°
2026-04-30 14:46 15.54420 -15.50236 34929 ft 475 kts 152°
2026-04-30 14:47 15.47827 -15.46131 34929 ft 475 kts 152°
2026-04-30 14:47 15.42161 -15.42607 34932 ft 475 kts 152°
2026-04-30 14:48 15.36490 -15.39081 34925 ft 474 kts 152°
2026-04-30 14:48 15.30827 -15.35562 34925 ft 474 kts 152°
2026-04-30 14:49 15.25200 -15.32067 34923 ft 474 kts 152°
2026-04-30 14:49 15.19538 -15.28554 34919 ft 474 kts 152°
2026-04-30 14:50 15.11041 -15.23285 34912 ft 475 kts 152°
2026-04-30 14:51 15.03488 -15.18605 34916 ft 475 kts 152°
2026-04-30 14:52 14.94979 -15.13338 34917 ft 475 kts 152°
2026-04-30 14:52 14.86462 -15.08071 34912 ft 475 kts 152°
2026-04-30 14:53 14.77948 -15.02811 34909 ft 475 kts 152°
2026-04-30 14:54 14.71818 -15.00499 34931 ft 468 kts 168°
2026-04-30 14:54 14.65558 -14.98791 34908 ft 468 kts 168°
2026-04-30 14:55 14.56114 -14.96192 34909 ft 468 kts 168°
2026-04-30 14:56 14.43510 -14.92714 34887 ft 468 kts 168°
2026-04-30 14:57 14.34118 -14.90121 34904 ft 468 kts 168°
2026-04-30 14:58 14.21543 -14.86654 34901 ft 468 kts 168°
2026-04-30 14:58 14.12107 -14.84054 34899 ft 468 kts 168°
2026-04-30 15:00 13.96419 -14.79753 34898 ft 467 kts 168°
2026-04-30 15:01 13.83832 -14.76323 34897 ft 468 kts 168°
2026-04-30 15:01 13.74398 -14.73754 34904 ft 466 kts 168°
2026-04-30 15:02 13.68122 -14.72046 34900 ft 466 kts 168°
2026-04-30 15:03 13.52459 -14.67788 34895 ft 467 kts 168°
2026-04-30 15:04 13.36767 -14.63527 34898 ft 466 kts 168°
2026-04-30 15:06 13.21090 -14.59276 34895 ft 466 kts 168°
2026-04-30 15:07 13.08595 -14.55893 34894 ft 466 kts 168°
2026-04-30 15:08 12.96049 -14.52499 34892 ft 466 kts 167°
2026-04-30 15:09 12.80388 -14.48267 34889 ft 466 kts 167°
2026-04-30 15:10 12.67851 -14.44882 34889 ft 466 kts 167°
2026-04-30 15:11 12.49082 -14.39817 34889 ft 465 kts 167°
2026-04-30 15:13 12.33408 -14.35594 34884 ft 466 kts 167°
2026-04-30 15:14 12.11500 -14.29698 34883 ft 466 kts 167°
2026-04-30 15:17 11.83380 -14.22148 34885 ft 465 kts 166°
2026-04-30 15:19 11.58658 -14.14437 34885 ft 466 kts 160°